TimeEDT,TemperatureF,Dew PointF,Humidity,Sea Level PressureIn,VisibilityMPH,Wind Direction,Wind SpeedMPH,Gust SpeedMPH,PrecipitationIn,Events,Conditions,WindDirDegrees,DateUTC
12:15 AM,69.8,60.1,71,29.97,10.0,SW,11.5,18.4,N/A,,Clear,230,2013-08-20 04:15:00
12:36 AM,69.4,60.3,73,29.97,10.0,SW,10.4,17.3,N/A,,Clear,230,2013-08-20 04:36:00
12:55 AM,69.1,60.3,73,29.97,10.0,SW,9.2,-,N/A,,Clear,220,2013-08-20 04:55:00
1:16 AM,69.4,60.1,72,29.97,10.0,SW,11.5,16.1,N/A,,Clear,230,2013-08-20 05:16:00
1:36 AM,69.4,59.9,72,29.97,10.0,SW,10.4,17.3,N/A,,Clear,230,2013-08-20 05:36:00
1:55 AM,69.3,60.1,72,29.97,10.0,SW,11.5,16.1,N/A,,Clear,230,2013-08-20 05:55:00
2:16 AM,69.3,60.1,72,29.97,10.0,SW,10.4,-,N/A,,Clear,230,2013-08-20 06:16:00
2:36 AM,69.3,59.9,72,29.97,10.0,SW,10.4,-,N/A,,Clear,230,2013-08-20 06:36:00
2:55 AM,69.3,60.1,72,29.97,10.0,SW,9.2,-,N/A,,Clear,220,2013-08-20 06:55:00
3:16 AM,69.1,60.3,73,29.97,10.0,SW,9.2,-,N/A,,Clear,220,2013-08-20 07:16:00
3:36 AM,68.5,60.6,76,29.97,10.0,SW,9.2,-,N/A,,Clear,220,2013-08-20 07:36:00
3:55 AM,68.7,60.8,76,29.97,10.0,SW,6.9,-,N/A,,Clear,230,2013-08-20 07:55:00
4:16 AM,68.9,61.7,78,29.97,10.0,SW,9.2,-,N/A,,Clear,230,2013-08-20 08:16:00
4:36 AM,68.9,61.7,78,29.97,10.0,SW,10.4,-,N/A,,Clear,230,2013-08-20 08:36:00
4:55 AM,69.1,61.9,78,29.97,10.0,SW,9.2,16.1,N/A,,Clear,230,2013-08-20 08:55:00
5:15 AM,68.9,62.2,79,29.97,10.0,SW,9.2,16.1,N/A,,Clear,230,2013-08-20 09:15:00
5:35 AM,68.4,62.2,81,29.97,10.0,SW,9.2,-,N/A,,Clear,230,2013-08-20 09:35:00
5:56 AM,68.4,62.6,82,29.98,10.0,WSW,8.1,-,N/A,,Clear,240,2013-08-20 09:56:00
6:16 AM,68.4,63.0,83,29.99,10.0,SW,8.1,-,N/A,,Clear,230,2013-08-20 10:16:00
6:36 AM,68.5,63.1,83,30.00,10.0,WSW,8.1,-,N/A,,Mostly Cloudy,240,2013-08-20 10:36:00
6:55 AM,68.4,63.5,84,30.00,10.0,WSW,9.2,-,N/A,,Overcast,240,2013-08-20 10:55:00
7:16 AM,68.9,63.7,83,30.01,10.0,SW,10.4,-,N/A,,Mostly Cloudy,230,2013-08-20 11:16:00
7:35 AM,68.0,63.7,86,30.01,10.0,WSW,10.4,-,N/A,,Scattered Clouds,240,2013-08-20 11:35:00
7:55 AM,68.0,63.9,87,30.01,10.0,WSW,8.1,-,N/A,,Clear,240,2013-08-20 11:55:00
8:16 AM,68.9,64.0,84,30.02,10.0,SW,8.1,-,N/A,,Clear,230,2013-08-20 12:16:00
8:35 AM,69.8,64.4,83,30.02,10.0,SW,10.4,16.1,N/A,,Scattered Clouds,230,2013-08-20 12:35:00
8:55 AM,70.5,64.6,81,30.02,10.0,SW,10.4,16.1,N/A,,Scattered Clouds,230,2013-08-20 12:55:00
9:15 AM,71.1,64.6,80,30.02,10.0,SW,10.4,-,N/A,,Scattered Clouds,230,2013-08-20 13:15:00
9:35 AM,71.2,64.6,79,30.03,10.0,SW,9.2,-,N/A,,Scattered Clouds,230,2013-08-20 13:35:00
9:56 AM,71.6,64.6,78,30.03,10.0,WSW,8.1,-,N/A,,Clear,240,2013-08-20 13:56:00
10:15 AM,72.0,64.6,77,30.03,10.0,SW,9.2,18.4,N/A,,Clear,230,2013-08-20 14:15:00
10:35 AM,72.7,64.9,77,30.04,10.0,WSW,10.4,-,N/A,,Clear,240,2013-08-20 14:35:00
10:56 AM,73.0,64.9,76,30.04,10.0,WSW,9.2,16.1,N/A,,Clear,250,2013-08-20 14:56:00
11:15 AM,72.7,64.4,75,30.04,10.0,WSW,11.5,19.6,N/A,,Clear,250,2013-08-20 15:15:00
11:36 AM,73.4,64.2,73,30.04,10.0,WSW,12.7,18.4,N/A,,Clear,250,2013-08-20 15:36:00
11:56 AM,73.4,64.2,73,30.04,10.0,WSW,11.5,17.3,N/A,,Clear,240,2013-08-20 15:56:00
12:15 PM,73.8,64.0,72,30.04,10.0,WSW,13.8,23.0,N/A,,Clear,240,2013-08-20 16:15:00
12:36 PM,73.9,64.0,71,30.04,10.0,WSW,9.2,23.0,N/A,,Clear,240,2013-08-20 16:36:00
12:56 PM,74.3,63.7,69,30.04,10.0,WSW,13.8,23.0,N/A,,Clear,240,2013-08-20 16:56:00
1:15 PM,75.0,63.1,66,30.04,10.0,WSW,13.8,25.3,N/A,,Clear,250,2013-08-20 17:15:00
1:36 PM,74.8,64.0,69,30.04,10.0,WSW,13.8,23.0,N/A,,Clear,250,2013-08-20 17:36:00
1:56 PM,75.2,64.0,68,30.03,10.0,WSW,15.0,21.9,N/A,,Clear,250,2013-08-20 17:56:00
2:15 PM,75.6,63.7,66,30.03,10.0,WSW,12.7,19.6,N/A,,Clear,250,2013-08-20 18:15:00
2:36 PM,75.4,62.6,64,30.03,10.0,WSW,10.4,21.9,N/A,,Clear,250,2013-08-20 18:36:00
2:56 PM,76.1,62.8,63,30.03,10.0,WSW,15.0,24.2,N/A,,Clear,250,2013-08-20 18:56:00
3:15 PM,76.5,62.8,62,30.03,10.0,WSW,13.8,19.6,N/A,,Clear,250,2013-08-20 19:15:00
3:36 PM,77.0,63.0,62,30.02,10.0,WSW,15.0,21.9,N/A,,Clear,240,2013-08-20 19:36:00
3:56 PM,77.5,62.8,60,30.02,10.0,WSW,10.4,19.6,N/A,,Clear,250,2013-08-20 19:56:00
4:15 PM,77.5,63.0,61,30.02,10.0,WSW,12.7,19.6,N/A,,Clear,250,2013-08-20 20:15:00
4:36 PM,77.9,62.8,60,30.02,10.0,WSW,10.4,18.4,N/A,,Clear,250,2013-08-20 20:36:00
4:56 PM,77.0,63.1,62,30.01,10.0,WSW,13.8,20.7,N/A,,Clear,240,2013-08-20 20:56:00
5:15 PM,77.2,63.0,61,30.01,10.0,WSW,12.7,21.9,N/A,,Clear,240,2013-08-20 21:15:00
5:36 PM,76.8,63.3,63,30.01,10.0,WSW,11.5,19.6,N/A,,Clear,240,2013-08-20 21:36:00
5:56 PM,76.5,63.0,63,30.00,10.0,WSW,12.7,19.6,N/A,,Clear,240,2013-08-20 21:56:00
6:15 PM,76.1,62.6,63,30.00,10.0,WSW,11.5,19.6,N/A,,Clear,240,2013-08-20 22:15:00
6:36 PM,74.8,62.6,66,30.00,10.0,WSW,12.7,20.7,N/A,,Clear,250,2013-08-20 22:36:00
6:55 PM,73.8,63.5,70,30.00,10.0,WSW,11.5,20.7,N/A,,Clear,240,2013-08-20 22:55:00
7:15 PM,73.8,63.5,70,30.00,10.0,WSW,11.5,18.4,N/A,,Clear,240,2013-08-20 23:15:00
7:36 PM,73.4,63.5,71,30.00,10.0,WSW,11.5,18.4,N/A,,Clear,240,2013-08-20 23:36:00
7:55 PM,72.7,63.1,72,30.00,10.0,WSW,11.5,18.4,N/A,,Clear,240,2013-08-20 23:55:00
8:15 PM,71.6,63.5,76,30.00,10.0,WSW,9.2,16.1,N/A,,Clear,240,2013-08-21 00:15:00
8:36 PM,71.2,63.5,76,30.00,10.0,WSW,5.8,-,N/A,,Clear,240,2013-08-21 00:36:00
8:55 PM,70.2,63.7,80,30.00,10.0,WSW,5.8,-,N/A,,Clear,250,2013-08-21 00:55:00
9:15 PM,70.5,63.9,79,30.00,10.0,WSW,4.6,-,N/A,,Clear,240,2013-08-21 01:15:00
9:36 PM,70.3,63.7,79,30.01,10.0,SW,4.6,-,N/A,,Clear,230,2013-08-21 01:36:00
9:55 PM,69.8,63.7,81,30.01,10.0,SW,6.9,-,N/A,,Clear,220,2013-08-21 01:55:00
10:15 PM,71.6,62.8,74,30.01,10.0,SSW,6.9,-,N/A,,Clear,210,2013-08-21 02:15:00
10:36 PM,71.8,62.6,73,30.01,10.0,SSW,6.9,-,N/A,,Clear,210,2013-08-21 02:36:00
10:55 PM,71.6,62.6,73,30.00,10.0,SSW,5.8,-,N/A,,Clear,210,2013-08-21 02:55:00
11:15 PM,71.2,62.6,74,30.00,10.0,SSW,6.9,-,N/A,,Clear,210,2013-08-21 03:15:00
11:36 PM,70.9,62.6,75,30.00,10.0,SSW,5.8,-,N/A,,Clear,210,2013-08-21 03:36:00
11:55 PM,70.9,62.4,75,30.01,10.0,SW,6.9,-,N/A,,Clear,220,2013-08-21 03:55:00